[[{"header":{"parameterUnit":"m.s-1","parameterCategory":1,"la1":30.2991,"la2":30.254,"lo1":-89.0895,"lo2":-89.0444,"dy":0.0017,"dx":0.0017,"nx":28,"ny":28,"refTime":"2023-10-19T09:00:00:Z","depth":0,"parameterNumber":2,"parameterNumberName":"U-component_of_WINDS"},"data":[0,0,0,0,0,0,0,0,0,0,0,0,0,0,0,0,0,0,0,0,0,0,0,0,0,0,0,0,0,0,0,0,0,0,0,0,0,0,0,0,0,0,0,0,0,0,0,0,0,0,0,0,0,0,0,0,0,0,1.2008,1.2008,0,1.2053,1.2054,1.2054,1.2033,1.2032,1.2031,1.203,1.2075,1.2077,1.2079,0,0,0,0,0,0,0,0,0,0,0,0,0,1.1901,1.1903,1.2008,1.2008,1.2009,1.2053,1.2054,1.2055,1.2034,1.2032,1.2031,1.203,1.2074,1.2077,1.208,0,0,0,0,0,0,0,0,0,0,0,0,0,1.1947,1.1904,1.2008,1.2004,1.2004,1.2053,1.2054,1.2055,1.2034,1.2032,1.203,1.2029,1.2073,1.2077,1.208,1.2135,0,0,1.209,1.2092,0,0,0,0,0,0,0,0,1.1944,1.1951,1.2004,1.2004,1.2005,1.2036,1.2033,1.2082,1.2034,1.2023,1.203,1.2028,1.2063,1.2067,1.208,1.2137,1.2139,1.2091,1.2093,1.2094,1.2095,0,0,0,0,0,0,0,1.1941,1.1949,1.2026,1.2005,1.2005,1.1999,1.2004,1.2042,1.2052,1.2023,1.2022,1.2028,1.2063,1.2076,1.2081,1.214,1.2091,1.2094,1.2096,1.2097,1.2244,1.2246,0,0,0,0,0,0,1.1938,1.1946,1.2024,1.2027,1.197,1.2003,1.2008,1.2028,1.2051,1.2053,1.2029,1.2027,1.2072,1.2077,1.2082,1.2148,1.2094,1.2097,1.2099,1.2242,1.2245,1.2247,0,0,0,0,0,0,1.1936,1.1945,1.2023,1.1986,1.1996,1.2006,1.2029,1.2029,1.2043,1.2056,1.2057,1.2041,1.207,1.2077,1.2122,1.2149,1.2099,1.2102,1.224,1.2243,1.2246,1.228,0,0,0,0,0,0,1.1933,1.1945,1.1966,1.1987,1.1998,1.2062,1.203,1.2032,1.2049,1.2046,1.2067,1.2069,1.207,1.2117,1.2125,1.2153,1.2105,1.2238,1.2241,1.2245,1.2276,1.2283,1.229,0,0,0,0,0,1.1929,1.1974,1.1968,1.1977,1.2025,1.2064,1.207,1.207,1.2051,1.2072,1.2081,1.2069,1.2145,1.2122,1.2131,1.216,1.2236,1.224,1.2244,1.2273,1.2282,1.2289,0,0,0,0,0,0,1.1955,1.1976,1.197,1.2022,1.2042,1.206,1.2087,1.2079,1.2104,1.21,1.2098,1.2103,1.215,1.2159,1.2133,1.2214,1.2187,1.2194,1.2206,1.2215,1.2221,1.2218,1.2107,0,0,0,0,0,1.1967,1.1998,1.2015,1.2059,1.2069,1.2077,1.2094,1.2092,1.2112,1.212,1.2131,1.215,1.2178,1.2197,1.2224,1.2278,1.2282,1.2302,1.2308,1.2314,1.2319,1.2348,1.2357,1.2261,1.226,1.226,0,0,1.1992,1.2008,1.2027,1.2065,1.208,1.2111,1.2084,1.2118,1.2141,1.2125,1.2168,1.2177,1.2198,1.2247,1.227,1.2257,1.2347,1.2319,1.2323,1.2326,1.2353,1.2362,1.237,1.2263,1.2263,1.2262,0,0,1.2053,1.2068,1.2107,1.2123,1.2145,1.215,1.2159,1.2179,1.2185,1.2228,1.2217,1.2244,1.2292,1.2308,1.2322,1.2389,1.2378,1.2398,1.2432,1.246,1.2468,1.2474,1.2498,1.2506,1.2403,1.2403,1.2403,0,1.2081,1.2128,1.2128,1.2163,1.218,1.2167,1.2206,1.2221,1.2251,1.2263,1.2248,1.2309,1.2322,1.2375,1.2391,1.2403,1.2413,1.2395,1.2467,1.2473,1.248,1.2502,1.2511,1.2405,1.2405,1.2405,1.2404,0,1.2161,1.2194,1.2222,1.2252,1.2272,1.2309,1.2314,1.2334,1.233,1.2336,1.238,1.2396,1.2425,1.2438,1.2435,1.249,1.2481,1.2467,1.244,1.2491,1.2512,1.252,1.2408,1.2407,1.2407,1.2406,0,0,1.2239,1.2269,1.2279,1.2293,1.2317,1.2342,1.2378,1.2407,1.2424,1.2446,1.2475,1.2517,1.2503,1.252,1.2518,1.2543,1.2594,1.2525,1.2525,1.2537,1.2656,1.2666,1.2676,1.2587,1.2589,1.259,1.2654,0,1.2302,1.2365,1.2366,1.2424,1.2454,1.2443,1.2474,1.2492,1.2499,1.2524,1.2531,1.2561,1.2541,1.2551,1.2575,1.2583,1.2618,1.2578,1.2614,1.2616,1.2609,1.2687,1.2698,1.2757,1.2662,1.2663,1.2664,0,1.2383,1.2407,1.2469,1.2489,1.2501,1.2529,1.2556,1.2581,1.2601,1.2604,1.2622,1.2617,1.2653,1.2625,1.2674,1.2648,1.2662,1.2669,1.2671,1.2674,1.2643,1.2692,1.2776,1.2785,1.2677,1.2676,1.2675,0,1.2434,1.2482,1.2525,1.2536,1.2561,1.2581,1.2592,1.261,1.2627,1.2651,1.2662,1.2689,1.2704,1.2724,1.2726,1.2706,1.2776,1.2748,1.2779,1.2779,1.2794,1.2793,1.2881,1.2804,1.2804,1.2804,1.2803,0,1.2503,1.2541,1.2548,1.2574,1.2616,1.2616,1.2658,1.2667,1.2683,1.271,1.2702,1.2728,1.2729,1.2755,1.2757,1.2797,1.2804,1.2807,1.2807,1.2808,1.2807,1.2817,1.2813,1.2806,1.2805,1.2805,1.2805,0,1.2566,1.2572,1.2618,1.2638,1.2644,1.2674,1.269,1.2715,1.272,1.2755,1.2763,1.2772,1.2803,1.2807,1.2842,1.2843,1.2892,1.2888,1.2885,1.2885,1.2915,1.2912,1.3012,1.3026,1.294,1.2941,1.2941,0,1.261,1.2639,1.2662,1.268,1.2692,1.2721,1.2739,1.274,1.2759,1.2784,1.2806,1.2836,1.2859,1.2909,1.2918,1.2945,1.2941,1.2975,1.2945,1.2945,1.2941,1.2939,1.2942,1.298,1.2981,1.2982,1.2982,0,1.2686,1.2688,1.2715,1.2743,1.2764,1.2786,1.2807,1.2822,1.2826,1.2847,1.2879,1.2897,1.2934,1.2963,1.299,1.3,1.2992,1.2992,1.3,1.3001,1.2998,1.3,1.29,1.2989,1.2989,1.2988,1.2988,1.2987,1.2741,1.2766,1.2786,1.2816,1.2832,1.2851,1.2875,1.2884,1.2911,1.2941,1.294,1.2974,1.2993,1.3028,1.3041,1.3067,1.3056,1.3069,1.3072,1.3075,1.3077,1.2994,1.3072,1.3072,1.3072,1.3072,1.3072,0,1.2817,1.2829,1.2857,1.2886,1.2909,1.29,1.2922,1.2942,1.2973,1.2991,1.3015,1.3051,1.308,1.3091,1.3119,1.3138,1.3135,1.3146,1.3144,1.3146,1.3086,1.3076,1.3148,1.3148,1.3148,1.3148,1.3148,1.3148,1.2859,1.2901,1.2905,1.2954,1.2966,1.3001,1.3014,1.3031,1.3046,1.3087,1.3111,1.3119,1.3134,1.3163,1.3189,1.3192,1.3202,1.3214,1.3215,1.3158,1.3151,1.3143,1.3134,1.3217,1.3217,1.3274,1.3274,1.3275]},{"header":{"parameterUnit":"m.s-1","parameterCategory":1,"la1":30.2991,"la2":30.254,"lo1":-89.0895,"lo2":-89.0444,"dy":0.0017,"dx":0.0017,"nx":28,"ny":28,"refTime":"2023-10-19T09:00:00:Z","depth":0,"parameterNumber":3,"parameterNumberName":"V-component_of_WINDS"},"data":[0,0,0,0,0,0,0,0,0,0,0,0,0,0,0,0,0,0,0,0,0,0,0,0,0,0,0,0,0,0,0,0,0,0,0,0,0,0,0,0,0,0,0,0,0,0,0,0,0,0,0,0,0,0,0,0,0,0,3.3884,3.3885,0,3.3977,3.3978,3.3979,3.395,3.3948,3.3946,3.3944,3.4031,3.4035,3.4039,0,0,0,0,0,0,0,0,0,0,0,0,0,3.3676,3.368,3.3884,3.3885,3.3887,3.3976,3.3978,3.3979,3.395,3.3948,3.3945,3.3943,3.403,3.4035,3.404,0,0,0,0,0,0,0,0,0,0,0,0,0,3.3767,3.3681,3.3884,3.3883,3.3884,3.3976,3.3978,3.3979,3.395,3.3948,3.3945,3.3942,3.4028,3.4034,3.404,3.4137,0,0,3.4059,3.4062,0,0,0,0,0,0,0,0,3.3762,3.3775,3.3882,3.3883,3.3884,3.3949,3.3936,3.4032,3.3951,3.3925,3.3944,3.394,3.4006,3.4013,3.4037,3.4141,3.4145,3.406,3.4064,3.4066,3.4068,0,0,0,0,0,0,0,3.3756,3.3771,3.392,3.3884,3.3885,3.3876,3.3886,3.3954,3.398,3.3927,3.3925,3.3937,3.4006,3.4031,3.4039,3.4146,3.406,3.4065,3.4069,3.4071,3.4334,3.4337,0,0,0,0,0,0,3.375,3.3766,3.3917,3.3923,3.3815,3.3882,3.3893,3.3931,3.3979,3.3984,3.3939,3.3935,3.4022,3.4032,3.4042,3.4158,3.4066,3.4072,3.4076,3.4331,3.4335,3.4338,0,0,0,0,0,0,3.3745,3.3764,3.3914,3.3844,3.3863,3.3889,3.3932,3.3934,3.396,3.3989,3.3993,3.3961,3.402,3.4033,3.4114,3.4161,3.4075,3.408,3.4327,3.4332,3.4336,3.4392,0,0,0,0,0,0,3.3739,3.3762,3.3801,3.3845,3.3866,3.3987,3.3935,3.3938,3.3971,3.3967,3.401,3.4014,3.4019,3.4105,3.412,3.4168,3.4085,3.4323,3.4329,3.4335,3.4386,3.4398,3.4409,0,0,0,0,0,3.3732,3.3811,3.3803,3.3821,3.3915,3.3989,3.4001,3.4007,3.3975,3.4013,3.4032,3.4013,3.4154,3.4114,3.413,3.4181,3.432,3.4327,3.4334,3.4381,3.4396,3.4409,0,0,0,0,0,0,3.3768,3.3816,3.3808,3.3904,3.3943,3.3984,3.4032,3.4022,3.4069,3.4063,3.4065,3.4075,3.4158,3.4177,3.4132,3.4277,3.4232,3.4243,3.4261,3.4276,3.4287,3.428,3.409,0,0,0,0,0,3.3787,3.3846,3.3884,3.3965,3.3985,3.4006,3.4038,3.4039,3.4079,3.4095,3.4119,3.4156,3.4209,3.4243,3.4293,3.4389,3.4398,3.4432,3.4443,3.4452,3.4462,3.4514,3.453,3.4362,3.4362,3.4362,0,0,3.3827,3.3861,3.3897,3.3973,3.4004,3.4062,3.402,3.4083,3.4126,3.4103,3.4182,3.4202,3.4243,3.4333,3.4373,3.4351,3.451,3.4462,3.4469,3.4473,3.4523,3.4539,3.4553,3.4367,3.4366,3.4366,0,0,3.393,3.3962,3.4033,3.4066,3.4114,3.4127,3.4144,3.4188,3.4201,3.428,3.4265,3.4315,3.4405,3.4436,3.4463,3.4579,3.4564,3.4595,3.4654,3.4705,3.4718,3.473,3.4771,3.4786,3.4605,3.4605,3.4605,0,3.3973,3.4063,3.407,3.4137,3.417,3.4155,3.4226,3.4256,3.4317,3.4339,3.4315,3.4429,3.4456,3.4552,3.4581,3.4603,3.4622,3.459,3.4716,3.4728,3.4739,3.4778,3.4794,3.4608,3.4608,3.4608,3.4607,0,3.4114,3.4176,3.4228,3.429,3.4329,3.4397,3.4413,3.4452,3.445,3.4465,3.4546,3.4578,3.4635,3.4658,3.4655,3.4754,3.4739,3.4715,3.467,3.4758,3.4795,3.4811,3.4613,3.4612,3.4611,3.461,0,0,3.424,3.4308,3.4326,3.4355,3.4407,3.4455,3.4522,3.458,3.4613,3.4655,3.4711,3.4788,3.4767,3.4799,3.4799,3.4844,3.4934,3.4815,3.4816,3.4836,3.5045,3.5063,3.508,3.4925,3.4927,3.493,3.5042,0,3.4348,3.4469,3.4478,3.4586,3.4644,3.4631,3.4689,3.4727,3.4743,3.4793,3.4809,3.4865,3.4833,3.4852,3.4896,3.4914,3.4976,3.4906,3.4975,3.4977,3.4965,3.51,3.5118,3.5223,3.5056,3.5059,3.5061,0,3.4489,3.4539,3.4654,3.47,3.4724,3.4777,3.4831,3.488,3.4921,3.493,3.4966,3.4961,3.5028,3.4981,3.5073,3.5025,3.5053,3.5067,3.5071,3.5077,3.5024,3.511,3.5256,3.5272,3.5083,3.5082,3.508,0,3.457,3.4666,3.4748,3.4772,3.4827,3.4865,3.4889,3.4928,3.4963,3.501,3.5032,3.5085,3.5114,3.5154,3.5163,3.5128,3.5255,3.5208,3.5262,3.5262,3.5289,3.5287,3.5442,3.5308,3.5308,3.5307,3.5307,0,3.4689,3.476,3.4785,3.4835,3.4914,3.4923,3.5,3.5021,3.5057,3.5109,3.51,3.5149,3.5158,3.5208,3.5215,3.529,3.5303,3.5311,3.5312,3.5312,3.5311,3.533,3.5323,3.5312,3.5311,3.531,3.5309,0,3.4793,3.4813,3.4901,3.4947,3.496,3.5016,3.5054,3.5102,3.5118,3.5184,3.52,3.5224,3.5284,3.5297,3.5366,3.537,3.546,3.5453,3.5447,3.5446,3.55,3.5494,3.5672,3.5696,3.5546,3.5548,3.5549,0,3.4867,3.4922,3.4975,3.5011,3.5038,3.5096,3.5132,3.5143,3.5181,3.5234,3.5274,3.5333,3.538,3.5475,3.5497,3.555,3.5545,3.5604,3.5553,3.5552,3.5546,3.5543,3.5548,3.5613,3.5615,3.5616,3.5617,0,3.4997,3.5005,3.5059,3.5118,3.5162,3.5208,3.5251,3.528,3.5297,3.5339,3.5401,3.5439,3.5511,3.5569,3.5623,3.5645,3.5634,3.5634,3.5649,3.5649,3.5643,3.5647,3.5473,3.5629,3.5628,3.5627,3.5626,3.5626,3.5089,3.5137,3.5183,3.5244,3.5278,3.5319,3.5367,3.539,3.5443,3.5504,3.5507,3.5574,3.5615,3.5686,3.5712,3.5763,3.5745,3.5767,3.5773,3.5778,3.5783,3.5636,3.5773,3.5773,3.5772,3.5772,3.5772,0,3.5219,3.5248,3.5304,3.5367,3.5414,3.5403,3.545,3.549,3.5551,3.5591,3.5639,3.571,3.5767,3.5795,3.585,3.5886,3.5883,3.59,3.5898,3.5903,3.5796,3.5778,3.5903,3.5903,3.5903,3.5903,3.5903,3.5903,3.5292,3.5374,3.5387,3.5485,3.5513,3.5582,3.561,3.5648,3.568,3.5761,3.5809,3.5828,3.5863,3.5921,3.5972,3.5979,3.6,3.602,3.6024,3.5924,3.591,3.5898,3.588,3.6025,3.6025,3.6126,3.6127,3.6128]}]]